[[{"header":{"parameterUnit":"m.s-1","parameterCategory":1,"la1":30.2991,"la2":30.254,"lo1":-89.0895,"lo2":-89.0444,"dy":0.0017,"dx":0.0017,"nx":28,"ny":28,"refTime":"2026-01-09T03:00:00:Z","depth":0,"parameterNumber":2,"parameterNumberName":"U-component_of_WINDS"},"data":[0,0,0,0,0,0,0,0,0,0,0,0,0,0,0,0,0,0,0,0,0,0,0,0,0,0,0,0,0,0,0,0,0,0,0,0,0,0,0,0,0,0,0,0,0,0,0,0,0,0,0,0,0,0,0,0,0,0,2.5719,2.5719,0,2.5709,2.5709,2.5709,2.5716,2.5717,2.5717,2.5717,2.5708,2.5707,2.5706,0,0,0,0,0,0,0,0,0,0,0,0,0,2.5744,2.5744,2.5719,2.5719,2.5718,2.5709,2.5709,2.5709,2.5716,2.5717,2.5717,2.5717,2.5708,2.5707,2.5706,0,0,0,0,0,0,0,0,0,0,0,0,0,2.5734,2.5744,2.5719,2.5721,2.5721,2.5709,2.5709,2.5709,2.5716,2.5717,2.5717,2.5717,2.5708,2.5707,2.5706,2.5692,0,0,2.5704,2.5703,0,0,0,0,0,0,0,0,2.5734,2.5733,2.5721,2.5721,2.5721,2.5714,2.5715,2.5703,2.5716,2.5718,2.5717,2.5718,2.5709,2.5709,2.5706,2.5692,2.5691,2.5704,2.5703,2.5703,2.5703,0,0,0,0,0,0,0,2.5735,2.5733,2.5715,2.5721,2.5721,2.5723,2.5722,2.5713,2.5711,2.5718,2.5718,2.5717,2.571,2.5707,2.5706,2.5691,2.5704,2.5703,2.5703,2.5702,2.5667,2.5667,0,0,0,0,0,0,2.5736,2.5734,2.5715,2.5715,2.5729,2.5722,2.5721,2.5716,2.5711,2.5711,2.5717,2.5718,2.5708,2.5707,2.5705,2.569,2.5703,2.5702,2.5702,2.5668,2.5667,2.5667,0,0,0,0,0,0,2.5736,2.5734,2.5716,2.5724,2.5722,2.5721,2.5715,2.5716,2.5712,2.5711,2.571,2.5714,2.5708,2.5706,2.5696,2.5689,2.5702,2.5701,2.5668,2.5668,2.5667,2.5657,0,0,0,0,0,0,2.5737,2.5734,2.5728,2.5724,2.5722,2.5706,2.5715,2.5715,2.5711,2.5712,2.5708,2.5707,2.5708,2.5697,2.5695,2.5689,2.57,2.5669,2.5668,2.5667,2.5658,2.5657,2.5655,0,0,0,0,0,2.5738,2.5725,2.5727,2.5725,2.5714,2.5705,2.5704,2.5705,2.571,2.5705,2.5704,2.5708,2.5691,2.5696,2.5694,2.5687,2.5669,2.5668,2.5667,2.5659,2.5657,2.5655,0,0,0,0,0,0,2.5727,2.5724,2.5727,2.5713,2.5709,2.5706,2.5699,2.5702,2.5697,2.5698,2.57,2.5699,2.5688,2.5686,2.5692,2.5674,2.5681,2.5679,2.5675,2.5673,2.5672,2.5672,2.57,0,0,0,0,0,2.5723,2.5716,2.5714,2.5702,2.57,2.57,2.5696,2.5698,2.5694,2.5692,2.5691,2.5687,2.5681,2.5677,2.5671,2.5658,2.5658,2.5653,2.5651,2.565,2.5649,2.5644,2.5642,2.5663,2.5663,2.5663,0,0,2.5715,2.5713,2.5708,2.57,2.5697,2.569,2.5699,2.569,2.5686,2.5691,2.5681,2.568,2.5677,2.5665,2.566,2.5663,2.5643,2.5649,2.5648,2.5647,2.5642,2.564,2.5639,2.5663,2.5663,2.5663,0,0,2.5696,2.5693,2.5684,2.5682,2.5678,2.5678,2.5676,2.5673,2.5673,2.5663,2.5668,2.5663,2.5652,2.565,2.5647,2.5631,2.5635,2.5629,2.5621,2.5616,2.5614,2.5613,2.5608,2.5606,2.5628,2.5628,2.5628,0,2.5686,2.5676,2.5678,2.5671,2.5668,2.5673,2.5664,2.5662,2.5656,2.5655,2.5659,2.5647,2.5645,2.5634,2.563,2.5628,2.5626,2.563,2.5614,2.5613,2.5611,2.5607,2.5605,2.5628,2.5628,2.5628,2.5628,0,2.5665,2.5658,2.565,2.5646,2.5642,2.5634,2.5636,2.5632,2.5635,2.5635,2.5626,2.5624,2.5619,2.5617,2.5619,2.5607,2.561,2.5614,2.5621,2.5609,2.5605,2.5603,2.5627,2.5627,2.5627,2.5627,0,0,2.5638,2.5637,2.5634,2.5633,2.5631,2.5625,2.5618,2.5614,2.5611,2.5608,2.5603,2.5595,2.5599,2.5597,2.5599,2.5594,2.5584,2.5599,2.5599,2.5597,2.5573,2.557,2.5568,2.5586,2.5586,2.5586,2.5573,0,2.562,2.5607,2.561,2.5598,2.5593,2.5599,2.5593,2.5592,2.5592,2.5588,2.5589,2.5584,2.559,2.5589,2.5585,2.5586,2.5579,2.5587,2.5582,2.5582,2.5583,2.5565,2.5562,2.555,2.5572,2.5571,2.5571,0,2.5597,2.5594,2.5582,2.5582,2.558,2.5574,2.5572,2.5568,2.5567,2.5568,2.5566,2.557,2.5564,2.5571,2.5564,2.5569,2.5568,2.5569,2.5568,2.5568,2.5576,2.5565,2.5546,2.5544,2.5568,2.5569,2.5569,0,2.558,2.5573,2.5565,2.5564,2.5564,2.556,2.556,2.556,2.5558,2.5556,2.5555,2.5552,2.5551,2.5549,2.5552,2.5557,2.5545,2.5552,2.5547,2.5547,2.5544,2.5544,2.5524,2.5542,2.5542,2.5542,2.5542,0,2.556,2.5553,2.5558,2.5553,2.5545,2.5549,2.5542,2.5543,2.5543,2.5539,2.5544,2.5541,2.5545,2.5542,2.5545,2.554,2.5539,2.554,2.5541,2.554,2.554,2.5539,2.554,2.5542,2.5542,2.5542,2.5542,0,2.554,2.5543,2.5535,2.5537,2.5537,2.5531,2.5533,2.5529,2.5531,2.5526,2.5525,2.5529,2.5526,2.5529,2.5526,2.5529,2.5521,2.5523,2.5522,2.5522,2.5517,2.5518,2.5497,2.5495,2.5513,2.5513,2.5513,0,2.5527,2.5522,2.5523,2.5521,2.5521,2.5517,2.5516,2.5521,2.5519,2.5519,2.5515,2.5513,2.5512,2.5507,2.551,2.5508,2.551,2.5503,2.551,2.551,2.5511,2.5512,2.5512,2.5502,2.5502,2.5501,2.5501,0,2.5505,2.5507,2.5504,2.5503,2.5501,2.55,2.5499,2.5498,2.5503,2.5501,2.5498,2.5497,2.5495,2.5494,2.5493,2.5494,2.5499,2.5499,2.5498,2.5497,2.5496,2.5498,2.5518,2.5499,2.55,2.55,2.55,2.55,2.5488,2.5484,2.5485,2.5483,2.5483,2.5483,2.548,2.5483,2.5481,2.548,2.5483,2.548,2.5481,2.5482,2.5482,2.5481,2.5484,2.5482,2.5481,2.5481,2.5481,2.5497,2.5481,2.5481,2.5481,2.5481,2.5481,0,2.5467,2.5468,2.5466,2.5466,2.5464,2.547,2.547,2.5468,2.5466,2.5467,2.5466,2.5464,2.5463,2.5466,2.5466,2.5464,2.5467,2.5464,2.5464,2.5465,2.5477,2.5479,2.5462,2.5462,2.5462,2.5462,2.5462,2.5462,2.5456,2.545,2.5453,2.5448,2.545,2.5447,2.5447,2.5448,2.5449,2.5446,2.5446,2.5448,2.545,2.5451,2.5451,2.5452,2.5452,2.5449,2.5451,2.5462,2.5464,2.5465,2.5467,2.5448,2.5448,2.5439,2.5438,2.5438]},{"header":{"parameterUnit":"m.s-1","parameterCategory":1,"la1":30.2991,"la2":30.254,"lo1":-89.0895,"lo2":-89.0444,"dy":0.0017,"dx":0.0017,"nx":28,"ny":28,"refTime":"2026-01-09T03:00:00:Z","depth":0,"parameterNumber":3,"parameterNumberName":"V-component_of_WINDS"},"data":[0,0,0,0,0,0,0,0,0,0,0,0,0,0,0,0,0,0,0,0,0,0,0,0,0,0,0,0,0,0,0,0,0,0,0,0,0,0,0,0,0,0,0,0,0,0,0,0,0,0,0,0,0,0,0,0,0,0,0.7305,0.7309,0,0.7649,0.7653,0.7657,0.7713,0.771,0.7707,0.7704,0.8058,0.8069,0.8082,0,0,0,0,0,0,0,0,0,0,0,0,0,0.6691,0.6702,0.7304,0.7309,0.7313,0.7648,0.7653,0.7658,0.7714,0.771,0.7706,0.7703,0.8054,0.8068,0.8083,0,0,0,0,0,0,0,0,0,0,0,0,0,0.6989,0.6706,0.7304,0.7381,0.7392,0.7647,0.7653,0.7659,0.7714,0.771,0.7705,0.7701,0.8049,0.8067,0.8085,0.8287,0,0,0.814,0.8148,0,0,0,0,0,0,0,0,0.6972,0.7011,0.7366,0.7377,0.7389,0.7633,0.7566,0.7869,0.7716,0.7592,0.7704,0.7699,0.792,0.7949,0.8023,0.8303,0.8319,0.8142,0.8153,0.8161,0.8166,0,0,0,0,0,0,0,0.6951,0.6997,0.7441,0.7371,0.7385,0.7397,0.7435,0.7624,0.7777,0.7602,0.7607,0.7647,0.7926,0.8005,0.8032,0.8324,0.8142,0.8158,0.8169,0.8176,0.8779,0.8784,0,0,0,0,0,0,0.6917,0.6979,0.743,0.7451,0.7165,0.7412,0.7454,0.7559,0.7775,0.7804,0.7651,0.7649,0.7976,0.801,0.8044,0.8291,0.8161,0.8178,0.8189,0.8774,0.878,0.8786,0,0,0,0,0,0,0.6903,0.6956,0.7416,0.7217,0.7276,0.7427,0.7545,0.7569,0.7649,0.7812,0.7839,0.7705,0.7974,0.8019,0.8224,0.8305,0.8186,0.8203,0.8768,0.8776,0.8783,0.8789,0,0,0,0,0,0,0.6885,0.6951,0.7032,0.7218,0.7286,0.7592,0.7551,0.7579,0.768,0.768,0.7869,0.7896,0.7974,0.8197,0.8243,0.8328,0.8217,0.8762,0.8772,0.8781,0.8782,0.8796,0.8807,0,0,0,0,0,0.6863,0.7021,0.7035,0.709,0.739,0.7597,0.7636,0.7722,0.7686,0.7767,0.787,0.789,0.8288,0.8217,0.827,0.8361,0.8757,0.8769,0.878,0.8777,0.8793,0.8807,0,0,0,0,0,0,0.6843,0.7048,0.7066,0.7289,0.7424,0.7606,0.7711,0.7737,0.7887,0.7881,0.7981,0.8024,0.8223,0.8313,0.8231,0.8564,0.8519,0.8542,0.8499,0.8516,0.8528,0.8503,0.8232,0,0,0,0,0,0.6864,0.7015,0.7186,0.7366,0.7433,0.7559,0.7653,0.7706,0.7851,0.791,0.8029,0.8168,0.8323,0.8425,0.8578,0.8794,0.8834,0.8882,0.8894,0.8904,0.8922,0.9038,0.906,0.8823,0.8823,0.8823,0,0,0.691,0.704,0.713,0.7365,0.7476,0.7628,0.7608,0.7772,0.7885,0.7935,0.8135,0.8226,0.8388,0.8598,0.8697,0.8679,0.8996,0.8918,0.8925,0.8939,0.9052,0.9074,0.9094,0.8831,0.883,0.8828,0,0,0.7071,0.7186,0.7346,0.7457,0.7625,0.7707,0.7744,0.7921,0.7982,0.8185,0.8223,0.8358,0.8626,0.8738,0.883,0.9023,0.9046,0.907,0.9136,0.9247,0.9266,0.9283,0.9349,0.9372,0.9087,0.9087,0.9088,0,0.7107,0.734,0.7425,0.7586,0.7686,0.7734,0.7895,0.7998,0.8208,0.8274,0.8251,0.8582,0.8695,0.893,0.8976,0.905,0.9093,0.905,0.9256,0.9274,0.9291,0.9355,0.938,0.9089,0.9089,0.9089,0.9089,0,0.7373,0.7533,0.7642,0.784,0.7952,0.8112,0.8219,0.8321,0.8363,0.8446,0.8647,0.8783,0.8961,0.902,0.9065,0.9259,0.9242,0.9236,0.9193,0.9314,0.9375,0.9401,0.9091,0.9091,0.909,0.909,0,0,0.7538,0.7775,0.7814,0.7901,0.8086,0.8211,0.8369,0.8542,0.8626,0.8766,0.89,0.9121,0.9114,0.9218,0.9274,0.9372,0.9511,0.9353,0.9358,0.9376,0.9729,0.9732,0.9759,0.9526,0.9531,0.9535,0.9714,0,0.7719,0.8006,0.8083,0.8325,0.847,0.8514,0.8652,0.8779,0.8859,0.8992,0.908,0.9234,0.9215,0.9277,0.9375,0.9473,0.9583,0.9461,0.9649,0.9655,0.9608,0.9792,0.9798,0.9962,0.9739,0.9744,0.9747,0,0.7971,0.8113,0.8369,0.8528,0.8592,0.8715,0.8876,0.9004,0.9145,0.9196,0.9308,0.9353,0.9516,0.9462,0.9687,0.9602,0.9683,0.9741,0.9749,0.9771,0.9709,0.9817,1.0016,1.004,0.9786,0.9783,0.978,0,0.8061,0.8316,0.8501,0.8575,0.8767,0.8851,0.8934,0.9072,0.9168,0.9308,0.937,0.9527,0.9613,0.9732,0.9816,0.977,1.0032,0.9987,1.0077,1.0075,1.0133,1.0128,1.0346,1.0185,1.0184,1.0184,1.0183,0,0.8256,0.841,0.8543,0.8657,0.8828,0.8913,0.908,0.9165,0.9286,0.9414,0.9461,0.958,0.9685,0.9817,0.9883,1.0056,1.0096,1.0139,1.0155,1.0136,1.0129,1.0191,1.0181,1.019,1.0189,1.0188,1.0186,0,0.8388,0.8483,0.8686,0.8849,0.8893,0.9012,0.915,0.926,0.9337,0.9499,0.9542,0.9665,0.9822,0.9916,1.0117,1.0161,1.0351,1.0363,1.0303,1.0311,1.0395,1.0385,1.066,1.0699,1.0512,1.0513,1.0515,0,0.8506,0.8625,0.8798,0.8886,0.897,0.9113,0.921,0.9296,0.9395,0.9561,0.965,0.9809,0.9941,1.0189,1.0296,1.0447,1.0462,1.0547,1.0486,1.0459,1.0461,1.0453,1.0463,1.0558,1.056,1.0561,1.0563,0,0.8704,0.8743,0.8882,0.9035,0.9148,0.9273,0.9398,0.9467,0.9573,0.9681,0.9841,0.9943,1.0144,1.03,1.0459,1.0543,1.057,1.058,1.0609,1.059,1.055,1.057,1.0331,1.0575,1.0573,1.0572,1.0572,1.0571,0.8832,0.8937,0.9073,0.9224,0.9325,0.9438,0.9548,0.9637,0.9772,0.9942,0.9983,1.015,1.0282,1.0498,1.0584,1.0714,1.0701,1.0743,1.0754,1.0763,1.0763,1.0528,1.0744,1.0743,1.0743,1.0743,1.0743,0,0.9031,0.9119,0.9256,0.9426,0.9543,0.9555,0.9691,0.9788,0.9934,1.0055,1.0182,1.0362,1.0512,1.0627,1.078,1.0861,1.0877,1.0898,1.0894,1.0911,1.0768,1.0727,1.0883,1.0883,1.0883,1.0883,1.0883,1.0883,0.9148,0.9325,0.9379,0.9605,0.9692,0.9855,0.9931,1.0034,1.013,1.0329,1.0453,1.0526,1.0643,1.0803,1.094,1.0969,1.1023,1.1042,1.1073,1.0938,1.0922,1.0908,1.087,1.1053,1.1053,1.1206,1.1208,1.1209]}]]